• In Germany
  • List of Countries
  • For 7 days
  • Water Temperature
  • Satellite Maps
  • Weather Map
  • Weather Widgets
  • user-avatar
    Login

    Hourly Weather Jewłach

    Today, 17 August, Thursday

    Time Temperature Precipitation Wind Pressure Humidity
    00:00 +28°C° 0 mm 2 mps 759 mmHg 41%
    01:00 +27°C° 0 mm 2 mps 759 mmHg 42%
    02:00 +27°C° 0 mm 2 mps 759 mmHg 44%
    03:00 +27°C° 0 mm 2 mps 759 mmHg 46%
    04:00 +27°C° 0.1 mm 1 mps 759 mmHg 47%
    05:00 +27°C° 0.1 mm 1 mps 759 mmHg 49%
    06:00 +27°C° 0.1 mm 1 mps 759 mmHg 50%
    07:00 +29°C° 0 mm 1 mps 758 mmHg 44%
    08:00 +31°C° 0 mm 1 mps 758 mmHg 39%
    09:00 +32°C° 0 mm 1 mps 758 mmHg 33%
    10:00 +33°C° 0.1 mm 1 mps 758 mmHg 31%
    11:00 +34°C° 0.1 mm 1 mps 758 mmHg 30%
    12:00 +35°C° 0.1 mm 1 mps 758 mmHg 28%
    13:00 +36°C° 0 mm 2 mps 758 mmHg 28%
    14:00 +36°C° 0 mm 2 mps 757 mmHg 28%
    15:00 +36°C° 0 mm 3 mps 757 mmHg 27%
    16:00 +36°C° 0 mm 3 mps 757 mmHg 27%
    17:00 +36°C° 0 mm 3 mps 757 mmHg 27%
    18:00 +36°C° 0 mm 3 mps 758 mmHg 28%
    19:00 +34°C° 0 mm 3 mps 758 mmHg 29%
    20:00 +33°C° 0 mm 3 mps 758 mmHg 30%
    21:00 +30°C° 0 mm 4 mps 759 mmHg 32%
    22:00 +29°C° 0 mm 3 mps 759 mmHg 34%
    23:00 +29°C° 0 mm 2 mps 759 mmHg 37%

    Tomorrow, 18 August, Friday

    Time Temperature Precipitation Wind Pressure Humidity
    00:00 +28°C° 0 mm 2 mps 759 mmHg 39%
    01:00 +27°C° 0 mm 2 mps 759 mmHg 40%
    02:00 +27°C° 0 mm 2 mps 759 mmHg 40%
    03:00 +27°C° 0 mm 2 mps 758 mmHg 40%
    04:00 +27°C° 0 mm 2 mps 759 mmHg 40%
    05:00 +27°C° 0 mm 2 mps 759 mmHg 40%
    06:00 +27°C° 0 mm 2 mps 759 mmHg 40%
    07:00 +29°C° 0 mm 3 mps 759 mmHg 35%
    08:00 +31°C° 0 mm 3 mps 758 mmHg 31%
    09:00 +34°C° 0 mm 3 mps 758 mmHg 26%
    10:00 +35°C° 0 mm 3 mps 758 mmHg 24%
    11:00 +36°C° 0 mm 2 mps 758 mmHg 22%
    12:00 +36°C° 0 mm 1 mps 758 mmHg 20%
    13:00 +38°C° 0 mm 2 mps 757 mmHg 19%
    14:00 +39°C° 0 mm 2 mps 757 mmHg 18%
    15:00 +40°C° 0 mm 3 mps 757 mmHg 18%
    16:00 +39°C° 0 mm 3 mps 757 mmHg 18%
    17:00 +40°C° 0 mm 4 mps 757 mmHg 19%
    18:00 +38°C° 0 mm 4 mps 758 mmHg 20%
    19:00 +36°C° 0 mm 4 mps 758 mmHg 21%
    20:00 +34°C° 0 mm 4 mps 759 mmHg 23%
    21:00 +32°C° 0 mm 5 mps 759 mmHg 24%
    22:00 +30°C° 0 mm 4 mps 760 mmHg 26%
    23:00 +29°C° 0 mm 3 mps 760 mmHg 28%

    Day after tomorrow, 19 August, Saturday

    Time Temperature Precipitation Wind Pressure Humidity
    00:00 +28°C° 0 mm 2 mps 760 mmHg 30%
    01:00 +28°C° 0 mm 2 mps 760 mmHg 31%
    02:00 +28°C° 0 mm 2 mps 760 mmHg 32%
    03:00 +27°C° 0 mm 2 mps 760 mmHg 33%
    04:00 +27°C° 0 mm 2 mps 760 mmHg 33%
    05:00 +27°C° 0 mm 2 mps 760 mmHg 32%
    06:00 +28°C° 0 mm 1 mps 761 mmHg 32%
    07:00 +30°C° 0 mm 1 mps 761 mmHg 28%
    08:00 +32°C° 0 mm 1 mps 761 mmHg 23%
    09:00 +34°C° 0 mm 1 mps 760 mmHg 19%
    10:00 +36°C° 0 mm 2 mps 760 mmHg 17%
    11:00 +38°C° 0 mm 2 mps 760 mmHg 15%
    12:00 +39°C° 0 mm 3 mps 760 mmHg 13%
    13:00 +41°C° 0 mm 4 mps 759 mmHg 13%
    14:00 +41°C° 0 mm 4 mps 759 mmHg 13%
    15:00 +42°C° 0 mm 5 mps 759 mmHg 13%
    16:00 +41°C° 0 mm 5 mps 759 mmHg 14%
    17:00 +40°C° 0 mm 5 mps 759 mmHg 15%
    18:00 +39°C° 0 mm 6 mps 759 mmHg 17%
    19:00 +36°C° 0 mm 5 mps 760 mmHg 18%
    20:00 +34°C° 0 mm 5 mps 761 mmHg 20%
    21:00 +32°C° 0 mm 5 mps 761 mmHg 22%
    22:00 +30°C° 0 mm 4 mps 761 mmHg 24%
    23:00 +29°C° 0 mm 3 mps 761 mmHg 26%

    20 August, Sunday

    Time Temperature Precipitation Wind Pressure Humidity
    00:00 +28°C° 0 mm 2 mps 761 mmHg 28%
    01:00 +28°C° 0 mm 2 mps 761 mmHg 29%
    02:00 +27°C° 0 mm 2 mps 761 mmHg 29%
    03:00 +27°C° 0 mm 1 mps 761 mmHg 29%
    04:00 +27°C° 0 mm 1 mps 761 mmHg 29%
    05:00 +27°C° 0 mm 1 mps 761 mmHg 28%
    06:00 +27°C° 0 mm 1 mps 761 mmHg 28%
    07:00 +29°C° 0 mm 1 mps 761 mmHg 24%
    08:00 +32°C° 0 mm 1 mps 761 mmHg 21%
    09:00 +34°C° 0 mm 1 mps 760 mmHg 17%
    10:00 +36°C° 0 mm 2 mps 760 mmHg 16%
    11:00 +38°C° 0 mm 3 mps 760 mmHg 14%
    12:00 +39°C° 0 mm 3 mps 759 mmHg 13%
    13:00 +41°C° 0 mm 4 mps 759 mmHg 13%
    14:00 +41°C° 0 mm 4 mps 758 mmHg 13%
    15:00 +42°C° 0 mm 5 mps 758 mmHg 12%
    16:00 +41°C° 0 mm 4 mps 758 mmHg 14%
    17:00 +40°C° 0 mm 4 mps 758 mmHg 15%
    18:00 +38°C° 0 mm 4 mps 758 mmHg 17%
    19:00 +36°C° 0 mm 4 mps 759 mmHg 20%
    20:00 +34°C° 0 mm 4 mps 759 mmHg 23%
    21:00 +32°C° 0 mm 4 mps 760 mmHg 26%
    22:00 +30°C° 0 mm 3 mps 760 mmHg 28%
    23:00 +29°C° 0 mm 3 mps 760 mmHg 29%

    21 August, Monday

    Time Temperature Precipitation Wind Pressure Humidity
    00:00 +28°C° 0 mm 2 mps 760 mmHg 31%
    01:00 +28°C° 0 mm 2 mps 759 mmHg 31%
    02:00 +27°C° 0 mm 1 mps 759 mmHg 31%
    03:00 +27°C° 0 mm 1 mps 759 mmHg 31%
    04:00 +27°C° 0 mm 1 mps 759 mmHg 30%
    05:00 +27°C° 0 mm 2 mps 759 mmHg 30%
    06:00 +27°C° 0 mm 2 mps 759 mmHg 29%
    07:00 +30°C° 0 mm 2 mps 759 mmHg 26%
    08:00 +32°C° 0 mm 2 mps 759 mmHg 22%
    09:00 +35°C° 0 mm 2 mps 758 mmHg 18%
    10:00 +36°C° 0 mm 2 mps 758 mmHg 17%
    11:00 +38°C° 0 mm 2 mps 757 mmHg 16%
    12:00 +39°C° 0 mm 2 mps 757 mmHg 14%
    13:00 +40°C° 0 mm 2 mps 756 mmHg 14%
    14:00 +40°C° 0 mm 3 mps 756 mmHg 13%
    15:00 +42°C° 0 mm 3 mps 756 mmHg 13%
    16:00 +40°C° 0 mm 3 mps 756 mmHg 14%
    17:00 +40°C° 0 mm 3 mps 756 mmHg 15%
    18:00 +39°C° 0 mm 3 mps 756 mmHg 17%
    19:00 +37°C° 0 mm 3 mps 757 mmHg 19%
    20:00 +35°C° 0 mm 3 mps 757 mmHg 22%
    21:00 +33°C° 0 mm 4 mps 758 mmHg 24%
    22:00 +31°C° 0 mm 3 mps 758 mmHg 26%
    23:00 +30°C° 0 mm 3 mps 758 mmHg 28%

    22 August, Tuesday

    Time Temperature Precipitation Wind Pressure Humidity
    00:00 +29°C° 0 mm 2 mps 757 mmHg 29%
    01:00 +29°C° 0 mm 2 mps 757 mmHg 30%
    02:00 +28°C° 0 mm 2 mps 757 mmHg 31%
    03:00 +28°C° 0 mm 1 mps 757 mmHg 31%
    04:00 +28°C° 0 mm 1 mps 757 mmHg 32%
    05:00 +28°C° 0 mm 1 mps 757 mmHg 32%
    06:00 +28°C° 0 mm 1 mps 757 mmHg 32%
    07:00 +30°C° 0 mm 1 mps 757 mmHg 28%
    08:00 +32°C° 0 mm 1 mps 757 mmHg 24%
    09:00 +34°C° 0 mm 1 mps 757 mmHg 20%
    10:00 +37°C° 0 mm 2 mps 756 mmHg 18%
    11:00 +38°C° 0 mm 2 mps 756 mmHg 17%
    12:00 +40°C° 0 mm 3 mps 755 mmHg 16%
    13:00 +40°C° 0 mm 3 mps 755 mmHg 16%
    14:00 +42°C° 0 mm 3 mps 754 mmHg 15%
    15:00 +43°C° 0 mm 4 mps 754 mmHg 15%
    16:00 +42°C° 0 mm 4 mps 754 mmHg 16%
    17:00 +41°C° 0 mm 4 mps 754 mmHg 17%
    18:00 +40°C° 0 mm 4 mps 754 mmHg 19%
    19:00 +37°C° 0 mm 4 mps 754 mmHg 21%
    20:00 +35°C° 0 mm 4 mps 755 mmHg 23%
    21:00 +33°C° 0 mm 4 mps 755 mmHg 26%
    22:00 +32°C° 0 mm 4 mps 755 mmHg 28%
    23:00 +30°C° 0 mm 3 mps 755 mmHg 30%
    Show more